Regional Weather Roundup
Issued by NWS

Home | Current Version | Previous Version | Text Only | Print | Product List | Glossary On
Versions: 1 2 3 4 5 6 7 8 9 10 11 12 13 14 15 16 17 18 19 20 21 22 23 24 25 26 27 28 29 30 31 32 33 34 35 36 37 38 39 40 41 42 43 44 45 46 47 48 49 50
000
ASCA42 TJSJ 271710
RWRPR
PUERTO RICO/U.S. VIRGIN ISLANDS HOURLY WEATHER ROUNDUP
NATIONAL WEATHER SERVICE SAN JUAN PR
100 PM AST WED JUL 27 2016

PRZ001-004-271800-
PUERTO RICO

CITY           SKY/WX    TMP DP  RH WIND       PRES   REMARKS
SAN JUAN LMM   MOSUNNY   90  79  70 E20       30.00F HX 105
AGUADILLA      MOSUNNY   88  79  74 E15       30.03F HX 102
CEIBA          SUNNY     90  79  70 E13       30.04F HX 105
$$

PRZ006-007-271800-
U.S. VIRGIN ISLANDS

CITY           SKY/WX    TMP DP  RH WIND       PRES   REMARKS
CHRISTIANSTED  MOSUNNY   90  77  66 E15       30.02F HX 102
$$

HOURLY WEATHER ROUNDUP FOR THE NEWS MEDIA

CITY           SKY/WX    TMP DP  RH WIND       PRES   REMARKS
ORLANDO        MOSUNNY   91  73  55 E7        30.10S HX  99
NEW YORK       MOSUNNY   84  63  49 S9        29.96S
NEWARK         MOSUNNY   89  59  36 NW6       29.94S
CHICAGO        MOSUNNY   84  63  49 W5        30.02R
HARTFORD       PTSUNNY   91  61  36 W12       29.90F HX  91
BOSTON         MOSUNNY   86  61  42 SE10      29.90S
DALLAS         PTSUNNY   93  70  46 VRB3      29.96S HX  99
PHILADELPHIA   MOSUNNY   90  65  43 VRB5      29.95S HX  92
LOS ANGELES    MOSUNNY   76  65  68 W8        29.93S
WASHINGTON DC  PTSUNNY   90  61  37 VRB7      29.98S HX  90


USA.gov is the U.S. government's official web portal to all federal, state and local government web resources and services.